Location: Katherine
(14.4670°S, 132.2670°E)
Time: 22:02:41
(UTC+09:30)

ISS - Visible Passes

Search period start: 17 October 2019 00:00
Search period end: 27 October 2019 00:00
Orbit: 411 x 421 km, 51.6° (Epoch: 17 October)

Date Brightness Start Highest point End Pass type
(mag) Time Alt. Az. Time Alt. Az. Time Alt. Az.
17 Oct -1.9 05:35:47 10° SSW 05:38:56 34° SE 05:42:02 10° ENE visible
17 Oct -0.3 20:33:41 10° SW 20:34:07 10° SW 20:34:32 10° SW visible
18 Oct -0.7 04:48:04 10° S 04:50:19 16° SE 04:52:33 10° E visible
18 Oct -1.0 19:42:54 10° W 19:45:28 21° SW 19:48:05 10° S visible
19 Oct -3.4 05:35:11 10° SW 05:38:26 43° NW 05:41:38 10° NNE visible
20 Oct -3.6 04:49:09 49° SSW 04:49:55 74° SE 04:53:17 10° NE visible
